Tiempo cada hora Dabizhuang

Hoy, 22 Junio, Martes

Tiempo Temperatura Precipitaciones Viento Presión Humedad
00:00 +26°C° 0 mm 4 mps 754 mmHg 45%
01:00 +25°C° 0 mm 3 mps 754 mmHg 47%
02:00 +25°C° 0 mm 3 mps 754 mmHg 49%
03:00 +24°C° 0 mm 2 mps 754 mmHg 51%
04:00 +24°C° 0 mm 2 mps 755 mmHg 52%
05:00 +24°C° 0 mm 1 mps 755 mmHg 54%
06:00 +25°C° 0 mm 2 mps 756 mmHg 49%
07:00 +27°C° 0 mm 2 mps 756 mmHg 44%
08:00 +28°C° 0 mm 3 mps 757 mmHg 39%
09:00 +29°C° 0 mm 3 mps 756 mmHg 36%
10:00 +31°C° 0 mm 3 mps 756 mmHg 33%
11:00 +33°C° 0 mm 3 mps 756 mmHg 31%
12:00 +33°C° 0 mm 4 mps 755 mmHg 29%
13:00 +34°C° 0 mm 4 mps 755 mmHg 27%
14:00 +35°C° 0 mm 5 mps 755 mmHg 26%
15:00 +34°C° 0 mm 5 mps 755 mmHg 26%
16:00 +34°C° 0 mm 5 mps 754 mmHg 27%
17:00 +33°C° 0 mm 5 mps 754 mmHg 28%
18:00 +32°C° 0 mm 5 mps 754 mmHg 31%
19:00 +29°C° 0 mm 5 mps 755 mmHg 34%
20:00 +28°C° 0 mm 5 mps 755 mmHg 37%
21:00 +27°C° 0 mm 5 mps 755 mmHg 38%
22:00 +27°C° 0 mm 4 mps 755 mmHg 39%
23:00 +27°C° 0 mm 4 mps 756 mmHg 40%

Mañana, 23 Junio, Miércoles

Tiempo Temperatura Precipitaciones Viento Presión Humedad
00:00 +26°C° 0.1 mm 4 mps 756 mmHg 46%
01:00 +25°C° 0.1 mm 3 mps 756 mmHg 52%
02:00 +24°C° 0.1 mm 2 mps 756 mmHg 58%
03:00 +23°C° 0.1 mm 2 mps 757 mmHg 60%
04:00 +22°C° 0.1 mm 3 mps 757 mmHg 63%
05:00 +22°C° 0.1 mm 3 mps 757 mmHg 65%
06:00 +24°C° 0.1 mm 3 mps 757 mmHg 59%
07:00 +25°C° 0.1 mm 4 mps 758 mmHg 54%
08:00 +26°C° 0.1 mm 4 mps 758 mmHg 48%
09:00 +27°C° 0 mm 4 mps 757 mmHg 43%
10:00 +29°C° 0 mm 4 mps 757 mmHg 38%
11:00 +32°C° 0 mm 4 mps 757 mmHg 33%
12:00 +32°C° 0 mm 4 mps 756 mmHg 32%
13:00 +32°C° 0 mm 4 mps 756 mmHg 31%
14:00 +33°C° 0 mm 4 mps 756 mmHg 30%
15:00 +33°C° 0 mm 4 mps 755 mmHg 30%
16:00 +32°C° 0 mm 4 mps 755 mmHg 31%
17:00 +32°C° 0 mm 4 mps 755 mmHg 31%
18:00 +30°C° 0 mm 4 mps 755 mmHg 35%
19:00 +29°C° 0 mm 3 mps 755 mmHg 38%
20:00 +27°C° 0 mm 3 mps 755 mmHg 42%
21:00 +27°C° 0 mm 3 mps 755 mmHg 44%
22:00 +27°C° 0 mm 3 mps 755 mmHg 45%
23:00 +26°C° 0 mm 3 mps 756 mmHg 47%

Pasado mañana, 24 Junio, Jueves

Tiempo Temperatura Precipitaciones Viento Presión Humedad
00:00 +26°C° 0 mm 3 mps 755 mmHg 48%
01:00 +26°C° 0 mm 3 mps 755 mmHg 48%
02:00 +26°C° 0 mm 2 mps 755 mmHg 49%
03:00 +25°C° 0 mm 2 mps 755 mmHg 50%
04:00 +25°C° 0 mm 2 mps 755 mmHg 51%
05:00 +25°C° 0 mm 2 mps 755 mmHg 53%
06:00 +25°C° 0 mm 2 mps 755 mmHg 53%
07:00 +25°C° 0 mm 2 mps 755 mmHg 54%
08:00 +25°C° 0 mm 2 mps 756 mmHg 55%
09:00 +25°C° 0 mm 2 mps 755 mmHg 56%
10:00 +25°C° 0 mm 3 mps 755 mmHg 56%
11:00 +25°C° 0 mm 3 mps 755 mmHg 57%
12:00 +26°C° 0 mm 2 mps 755 mmHg 55%
13:00 +27°C° 0 mm 2 mps 755 mmHg 54%
14:00 +28°C° 0 mm 1 mps 754 mmHg 52%
15:00 +27°C° 0 mm 2 mps 754 mmHg 55%
16:00 +27°C° 0 mm 2 mps 754 mmHg 57%
17:00 +27°C° 0 mm 3 mps 754 mmHg 60%
18:00 +26°C° 0 mm 3 mps 754 mmHg 64%
19:00 +25°C° 0 mm 3 mps 754 mmHg 69%
20:00 +23°C° 0 mm 4 mps 754 mmHg 73%
21:00 +24°C° 0 mm 3 mps 754 mmHg 74%
22:00 +24°C° 0 mm 3 mps 754 mmHg 75%
23:00 +24°C° 0 mm 3 mps 754 mmHg 75%

25 Junio, Viernes

Tiempo Temperatura Precipitaciones Viento Presión Humedad
00:00 +24°C° 0 mm 3 mps 754 mmHg 76%
01:00 +24°C° 0 mm 3 mps 753 mmHg 77%
02:00 +24°C° 0 mm 3 mps 753 mmHg 78%
03:00 +24°C° 0.1 mm 3 mps 753 mmHg 80%
04:00 +24°C° 0.1 mm 3 mps 752 mmHg 81%
05:00 +22°C° 0.1 mm 3 mps 752 mmHg 82%
06:00 +24°C° 0 mm 3 mps 752 mmHg 76%
07:00 +25°C° 0 mm 3 mps 752 mmHg 69%
08:00 +26°C° 0 mm 3 mps 752 mmHg 62%
09:00 +28°C° 0 mm 3 mps 752 mmHg 59%
10:00 +29°C° 0 mm 3 mps 751 mmHg 55%
11:00 +30°C° 0 mm 3 mps 751 mmHg 51%
12:00 +32°C° 0 mm 4 mps 750 mmHg 47%
13:00 +34°C° 0 mm 4 mps 750 mmHg 44%
14:00 +35°C° 0 mm 5 mps 749 mmHg 40%
15:00 +36°C° 0 mm 5 mps 749 mmHg 36%
16:00 +37°C° 0 mm 5 mps 748 mmHg 33%
17:00 +39°C° 0 mm 5 mps 748 mmHg 29%
18:00 +35°C° 0.7 mm 5 mps 748 mmHg 36%
19:00 +33°C° 0.7 mm 4 mps 748 mmHg 43%
20:00 +29°C° 0.7 mm 4 mps 749 mmHg 50%
21:00 +29°C° 0.4 mm 3 mps 749 mmHg 54%
22:00 +28°C° 0.4 mm 3 mps 749 mmHg 57%
23:00 +27°C° 0.4 mm 2 mps 749 mmHg 61%

26 Junio, Sábado

Tiempo Temperatura Precipitaciones Viento Presión Humedad
00:00 +27°C° 0 mm 2 mps 749 mmHg 64%
01:00 +26°C° 0 mm 2 mps 750 mmHg 67%
02:00 +25°C° 0 mm 2 mps 750 mmHg 70%
03:00 +25°C° 0 mm 2 mps 750 mmHg 69%
04:00 +25°C° 0 mm 3 mps 750 mmHg 68%
05:00 +25°C° 0 mm 3 mps 750 mmHg 68%
06:00 +26°C° 0.1 mm 3 mps 750 mmHg 63%
07:00 +27°C° 0.1 mm 3 mps 751 mmHg 59%
08:00 +29°C° 0.1 mm 3 mps 751 mmHg 54%
09:00 +30°C° 0.1 mm 3 mps 751 mmHg 49%
10:00 +33°C° 0.1 mm 3 mps 751 mmHg 44%
11:00 +34°C° 0.1 mm 3 mps 751 mmHg 39%
12:00 +36°C° 0 mm 3 mps 750 mmHg 36%
13:00 +37°C° 0 mm 4 mps 750 mmHg 34%
14:00 +38°C° 0 mm 4 mps 749 mmHg 31%
15:00 +37°C° 0 mm 5 mps 749 mmHg 33%
16:00 +37°C° 0 mm 5 mps 749 mmHg 34%
17:00 +36°C° 0 mm 6 mps 749 mmHg 35%
18:00 +34°C° 1 mm 6 mps 749 mmHg 47%
19:00 +30°C° 1 mm 6 mps 749 mmHg 59%
20:00 +27°C° 1 mm 7 mps 749 mmHg 71%
21:00 +26°C° 7.8 mm 6 mps 750 mmHg 76%
22:00 +25°C° 7.8 mm 4 mps 751 mmHg 81%
23:00 +24°C° 7.8 mm 3 mps 753 mmHg 86%

27 Junio, Domingo

Tiempo Temperatura Precipitaciones Viento Presión Humedad
00:00 +24°C° 0 mm 3 mps 752 mmHg 86%
01:00 +24°C° 0 mm 2 mps 752 mmHg 86%
02:00 +24°C° 0 mm 2 mps 751 mmHg 87%
03:00 +24°C° 0 mm 1 mps 752 mmHg 87%
04:00 +24°C° 0 mm 1 mps 752 mmHg 88%
05:00 +24°C° 0 mm 1 mps 752 mmHg 88%
06:00 +25°C° 0 mm 1 mps 752 mmHg 83%
07:00 +25°C° 0 mm 1 mps 752 mmHg 78%
08:00 +26°C° 0 mm 2 mps 752 mmHg 73%
09:00 +28°C° 0 mm 2 mps 752 mmHg 68%
10:00 +29°C° 0 mm 3 mps 752 mmHg 62%
11:00 +30°C° 0 mm 3 mps 752 mmHg 56%
12:00 +32°C° 0 mm 4 mps 752 mmHg 55%
13:00 +32°C° 0 mm 4 mps 751 mmHg 53%
14:00 +32°C° 0 mm 4 mps 751 mmHg 52%
15:00 +32°C° 0 mm 5 mps 751 mmHg 54%
16:00 +30°C° 0 mm 5 mps 750 mmHg 57%
17:00 +29°C° 0 mm 6 mps 750 mmHg 59%
18:00 +28°C° 0.2 mm 6 mps 751 mmHg 66%
19:00 +26°C° 0.2 mm 6 mps 751 mmHg 72%
20:00 +24°C° 0.2 mm 6 mps 752 mmHg 79%
21:00 +23°C° 1.3 mm 5 mps 752 mmHg 82%
22:00 +23°C° 1.3 mm 4 mps 752 mmHg 84%
23:00 +22°C° 1.3 mm 4 mps 753 mmHg 87%
Mostrar más

Necesitamos Su Consentimiento

Meteoprog y nuestros Proveedores de Servicios pueden almacenar y acceder a sus datos personales como cookies, identificadores de dispositivo u otras tecnologías similares de su dispositivo y procesar dichos datos para personalizar contenido y anuncios, además de ofrecer funciones de redes sociales y analizar el tráfico.

  • Almacenar y/o acceder a información en su dispositivo

    Se puede almacenar o acceder a cookies, identificadores de dispositivo u otra información de su dispositivo para los fines anteriormente indicados.

  • Anuncios y contenido personalizados, medición de anuncios y contenido, percepciones del público, y desarrollo de productos

    Los anuncios y el contenido pueden personalizarse en base a su perfil. Se pueden añadir más datos para personalizar mejor los anuncios y contenidos. Se puede medir el rendimiento de los anuncios y contenidos. Se puede obtener la percepción sobre el público que ha visto los anuncios y contenidos. Dichos datos pueden usarse para desarrollar o mejorar la experiencia del usuario, sistemas y software.

Al hacer clic en ‘Estoy De Acuerdo’ usted permitirá el uso de las cookies, identificadores de dispositivo, balizas web u otras tecnologías similares indicadas. Su configuración puede cambiarse desde el navegador de su dispositivo.

Para ciertos fines, los intereses legítimos pueden ser considerados por encima del consentimiento. Puede leer más sobre ello en nuestra Política de Privacidad y Cookies.